KKS-1 (KISEKI)

Last updated on Wed Sep 17 2025 00:03:09 GMT+0000 (Coordinated Universal Time)

1 33499U 09002H 25259.58768826 .00001411 00000+0 18501-3 0 9996 2 33499 98.1125 172.9780 0009630 95.1632 265.0679 14.81916356895656
UTC large
Height (km)
Speed (km/s)
/
Latitude / Longitude
Inclination (degrees)
Orbital Period (minutes)
Azimuth
Elevation
Range (km)
Doppler Factor

Next 0 passes for location: London (51.5072 / 0.1276)

Sorry there are no passes over London.